Hourly Data Report for October 02, 2017

All times are specified in Local Standard Time (LST). Add 1 hour to adjust for Daylight Saving Time where and when it is observed.

QUALICUM BEACH AIRPORT
BRITISH COLUMBIA

49°20'14.000" N
124°23'38.000" W
58.20 m
1026562
71766
VOQ

Download Data

Hourly Data (October 2017)
Hourly Data Report for October 2, 2017
Temp Definition
°C
Dew Point Temp Definition
°C
Rel Hum Definition
%
Wind Dir Definition
10's deg

Wind Spd Definition
km/h
Visibility Definition
km
Stn Press Definition
kPa
Hmdx Definition


Wind Chill Definition


Weather Definition


TIME
00:00 9.9 4.6 70 25 6   101.42     LegendNANA
01:00 8.0 4.9 81 24 3   101.44     LegendNANA
02:00 7.8 4.9 82 27 3   101.45     LegendNANA
03:00 7.7 5.0 83 25 6   101.47     LegendNANA
04:00 8.8 5.5 80 26 7   101.51     LegendNANA
05:00 9.5 5.8 78 26 6   101.53     LegendNANA
06:00 7.6 5.6 87 26 6   101.54     LegendNANA
07:00 7.6 5.6 87 27 5   101.55     LegendNANA
08:00 11.5 6.2 70 28 6   101.57     LegendNANA
09:00 12.7 6.7 67 31 11   101.60     LegendNANA
10:00 13.2 6.9 66 32 9   101.63     LegendNANA
11:00 14.6 6.8 60 31 13   101.64     LegendNANA
12:00 15.6 6.9 56 33 15   101.66     LegendNANA
13:00 16.2 4.9 47 33 15   101.66     LegendNANA
14:00 17.2 4.1 42 33 17   101.63     LegendNANA
15:00 17.8 1.7 34 32 14   101.63     LegendNANA
16:00 17.6 2.0 35 32 16   101.65     LegendNANA
17:00 17.1 1.9 36 31 13   101.66     LegendNANA
18:00 12.7 4.2 56 27 7   101.68     LegendNANA
19:00 11.6 4.2 60 28 6   101.70     LegendNANA
20:00 10.6 3.9 63 29 6   101.75     LegendNANA
21:00 9.8 3.5 65 28 7   101.79     LegendNANA
22:00 8.5 3.6 71 26 4   101.82     LegendNANA
23:00 6.3 3.3 81 21 2   101.84     LegendNANA

Notes on Data Quality.

Legend

  • E = Estimated
  • M = Missing
  • NA = Not Available
  • ‡ = Partner data that is not subject to review by the National Climate Archives
Date modified: